IRIDIUM 49

Last updated on Wed Nov 29 2017 00:19:02 GMT+0000 (Coordinated Universal Time)

1 25108U 97082E 17332.55929527 .00000086 00000-0 23709-4 0 9991 2 25108 86.3976 186.7115 0001917 90.2945 332.1543 14.34219834 43932
UTC large
Height (km)
Speed (km/s)
/
Latitude / Longitude
Inclination (degrees)
Orbital Period (minutes)
Azimuth
Elevation
Range (km)
Doppler Factor

Next 0 passes for location: London (51.5072 / 0.1276)

Sorry there are no passes over London.